Regional Weather Roundup
Issued by NWS

Home | Current Version | Previous Version | Graphics & Text | Print | Product List | Glossary On
Versions: 1 2 3 4 5 6 7 8 9 10 11 12 13 14 15 16 17 18 19 20 21 22 23 24 25 26 27 28 29 30 31 32 33 34 35 36 37 38 39 40 41 42 43 44 45 46 47 48 49 50
948
ASUS44 KLIX 280711
RWRLA
LOUISIANA WEATHER ROUNDUP
NATIONAL WEATHER SERVICE NEW ORLEANS LA
200 AM CDT SAT MAR 28 2015

NOTE: "FAIR" INDICATES FEW OR NO CLOUDS BELOW 12,000 FEET WITH NO
      SIGNIFICANT WEATHER AND/OR OBSTRUCTIONS TO VISIBILITY.
      SKY/WX - SKY CONDITION AND SIGNIFICANT WEATHER.
      TMP - AIR TEMPERATURE.    DP   - DEWPOINT TEMPERATURE.
      RH  - RELATIVE HUMIDITY.  PRES - PRESSURE.
      HX  - HEAT INDEX.         WCI  - WIND CHILL INDEX.

*  THESE STATIONS ARE NOT NWS OR FAA STATIONS AND ARE NOT UNDER
   NWS QUALITY CONTROL.

LAZ040-048-061>063-065-066-069-280800-
SOUTHEAST LOUISIANA

CITY           SKY/WX    TMP DP  RH WIND       PRES   REMARKS
N.O. AUDUBON     N/A     55 N/A N/A MISG        N/A
N.O. INTL ARPT PTCLDY    56  37  49 NE12      30.17S
N.O. LAKEFRONT CLEAR     58  39  49 NE14      30.18R
SLIDELL        CLEAR     47  41  80 CALM      30.17R
BATON ROUGE    CLEAR     47  43  86 CALM      30.18S
BOOTHVILLE     CLEAR     57  46  66 VRB5      30.17R
BELLE CHASSE   CLEAR     48  41  76 NE6       30.17S
BOGALUSA*        N/A     47  40  76 CALM      30.19S
GALLIANO*      SUNNY     58  43  57 MISG      30.17R
NEW ROADS*     FAIR      49  43  80 CALM      30.19S
GONZALES*      FAIR      49  42  75 CALM      30.18S
HAMMOND*       CLEAR     46  37  71 CALM      30.19F
HOUMA*         CLEAR     52  46  79 N7        30.17R
PORT FOURCHON* SUNNY     63  55  77 NE12      30.18R

$$

LAZ041-044-053-054-280800-
SOUTHWEST LOUISIANA

CITY           SKY/WX    TMP DP  RH WIND       PRES   REMARKS
LAKE CHARLES   CLEAR     51  44  77 E6        30.16F
LAFAYETTE      CLEAR     54  44  69 CALM      30.17S
PATTERSON      CLEAR     54  41  62 NE9       30.18S
SALT POINT       N/A     56  45  66 VRB3      30.16R
NEW IBERIA     CLEAR     54  42  64 E6        30.19R
CHENAULT AIRPK CLEAR     53  42  64 E3        30.17F

$$

LAZ027-028-280800-
CENTRAL LOUISIANA

CITY           SKY/WX    TMP DP  RH WIND       PRES   REMARKS
FORT POLK      CLEAR     51  39  62 NE5       30.15F
ALEXANDRIA INT CLEAR     49  42  77 NE5       30.17F
ALEXANDRIA     CLEAR     44  40  85 CALM      30.19S

$$

LAZ001-002-280800-
NORTHWEST LOUISIANA

CITY           SKY/WX    TMP DP  RH WIND       PRES   REMARKS
SHREVEPORT     PTCLDY    46  39  76 CALM      30.17F
BARKSDALE AFB  CLEAR     45  37  76 CALM      30.18F
DTN SHREVEPORT CLEAR     44  36  73 CALM      30.19S

$$

LAZ014-016-280800-
NORTHEAST LOUISIANA

CITY           SKY/WX    TMP DP  RH WIND       PRES   REMARKS
MONROE         CLEAR     44  41  89 CALM      30.21R
TALLULAH       CLEAR     42  37  82 CALM      30.20R

$$




USA.gov is the U.S. government's official web portal to all federal, state and local government web resources and services.